{"data":{"norad_id":47771,"epoch":"2026-05-24T12:52:32.575296Z","epoch_age_seconds":108396,"freshness":"FRESH","line1":"1 47771U 21017BB  26144.53648814  .00002006  00000+0  76342-4 0  9996","line2":"2 47771  53.1590 211.0865 0001145  90.2419 269.8714 15.31717829289493","mean_motion":15.31717829,"eccentricity":0.0001145,"inclination_deg":53.159,"raan_deg":211.0865,"arg_perigee_deg":90.2419,"mean_anomaly_deg":269.8714,"bstar":7.6342e-5,"rev_number":28949,"period_min":94.012093659582,"perigee_km":469.90265808927,"apogee_km":471.47103875056,"semimajor_km":6848.8238484199,"source":"CELESTRAK","updated_at":"2026-05-25T13:38:16.593965Z"}}